sat.trackr.live / text

‹ back to catalog

STARLINK-34828

NORAD 65353 · 2025-190C

PAYLOAD ACTIVE UNKNOWN

§ Identity

Operator
Country
US
Launch date
2025-08-28
Launch site
AFETR
Launch vehicle
Mass (kg)
RCS (m²)

Purposes: comms

External: N2YO · Heavens-Above · Gunter

§ Orbital elements

Epoch: 2026-05-25T01:44:16.908288Z

Period
94.10 min
Inclination
53.1592°
Eccentricity
0.0001463
Mean motion
15.30215902 rev/d
Perigee alt
474.2 km
Apogee alt
476.2 km
Semi-major
6,853.3 km
B*
6.3839e-4
RAAN
173.1110°
Arg perigee
80.6994°
Mean anomaly
279.4172°
Rev number
4,145

§ Raw data

STARLINK-348281 65353U 25190C   26145.07241792  .00018605  00000+0  63839-3 0  99902 65353  53.1592 173.1110 0001463  80.6994 279.4172 15.30215902 41457

JSON: /api/v1/satellites/65353 · /tle

For live sub-satellite position, see the globe view (requires WebGL).

§ Visibility from observer

Set your observer location to see the next 7 days of passes ≥ 10°. The values pass through the URL so the page stays shareable.

No JS? Fill the form by hand. The geolocation button needs JavaScript.